User: anonymous   Login
Location: Unspecified
(0.0000°N, 0.0000°E)
Time: 20:12:50
(UTC+00:00)
Language:

STARLINK-6229 - Orbit

View from above orbital plane
View from above orbital plane
View from above satellite
View from above satellite

Ground track
Ground track

The orbit is defined by the following mean orbital elements,

1 57093U          26144.94716520 +.00000000 +00000-0 +18244-3 0 00000
2 57093  43.0020  25.3976 0001361 237.7436 122.3284 15.27595396    04
Epoch (UTC): 24 May 2026 22:43:55
Eccentricity: 0.0001361
inclination: 43.0020°
perigee height: 482 km
apogee height: 484 km
right ascension of ascending node: 25.3976°
argument of perigee: 237.7436°
revolutions per day: 15.27595396
mean anomaly at epoch: 122.3284°

The dashed part of the orbit path shows where the satellite is in the earth's shadow,  

DLR